Location: Veytaux
(46.4185°N, 6.9320°E)
Time: 09:11:00
(UTC+00:00)

Cosmos 1536 Rocket - Pass Details

Date: 27 May 2022
Orbit: 604 x 632 km, 82.5° (Epoch: 01 July)

Event Time Altitude Azimuth Distance (km) Brightness Sun altitude
Exits shadow 02:25:21 16° 228° (SW) 1,609 5.0 -11.5°
Maximum altitude 02:28:16 34° 286° (WNW) 1,024 4.5 -11.2°
Drops below altitude 10° 02:32:18 10° 352° (N) 1,988 6.7 -10.7°
Sets 02:34:42 0° 2° (N) 2,893 7.8 -10.4°
